EHI
0 0 0 0 0 0 0 0 0 0 0 0 0 0 0 0 0 0 0 0 0 0 0 0 0 0 0 0 0 0 0 0 0 0 0 0 0 0 0 0 0 0 0
0 0 0 0 0 0 0 0 0 0 0 0 0 0 0 0 0 0 0 0 0 0 0 0 0 0 0 0 0 0 0 0 0 0 0 0 0 0 0 0 0 0 0
0 0 0 0 0 0 0 0 0 0 0 0 0 0 0 0 0 0 0 0 0 0 0 0 0 0 0 0 0 0 0 0 0 0 0 0 0 0 0 0 0 0 0
0 0 0 0 0 0 0 0 0 0 0 0 0 0 0 0 0 0 0 0 0 0 0 0 0 0 0 0 0 0 0 0 0 0 0 0 0 0 0 0 0 0 0
0 0 0 0 0 0 0 0 0 0 0 0 0 0 0 0 0 0 0 0 0 0 0 0 0 0 0 0 0 0 0 0 0 0 0 0 0 0 0 0 0 0 0
0 0 0 0 0 0 0 0 0 0 0 0 0 0 0 0 0 0 0 0 0 0 0 0 0 0 0 0 0 0 0 0 0 0 0 0 0 0 0 0 0 0 0
0 0 0 0 0 0 0 0 0 0 0 0 0 0 0 0 0 0 0 0 0 0 0 0 0 0 0 0 0 0 0 0 0 0 0 0 0 0 0 0 0 0 0
0 0 0 0 0 0 0 0 0 0 0 0 0 0 0 0 0 0 0 0 0 0 0 0 0 0 0 0 0 0 0 0 0 0 0 0 0 0 0 0 0 0 0
0 0 0 0 0 0 0 0 0 0 0 0 0 0 0 0 0 0 0 0 0 0 0 0 0 0 0 0 0 0 0 0 0 0 0 0 0 0 0 0 0 0 0
0 0 0 0 0 0 0 0 0 0 0 0 0 0 0 0 0 0 0 0 0 0 0 0 0 0 0 0 0 0 0 0 0 0 0 0 0 0 0 0 0 0 0
0 0 0 0 0 0 0 0 0 0 0 0 0 0 0 0 0 0 0 0 0 0 0 0 0 0 0 0 0 0 0 0 0 0 0 0 0 0 0 0 0 0 0
0 0 0 0 0 0 0 0 0 0 0 0 0 0 0 0 0 0 0 0 0 0 0 0 0 0 0 0 0 0 0 0 0 0 0 0 0 0 0 0 0 0 0
0 0 0 0 0 0 0 0 0 0 0 0 0 0 0 0 0 0 0 0 0 0 0 0 0 0 0 0 0 0 0 0 0 0 0 0 0 0 0 0 0 0 0
0 0 0 0 0 0 0 0 0 0 0 0 0 0 0 0 0 0 0 0 0 0 0 0 0 0 0 0 0 0 0 0 0 0 0 0 0 0 0 0 0 0 0
0 0 0 0 0 0 0 0 0 0 0 0 0 0 0 0 0 0 0 0 0 0 0 0 0 0 0 0 0 0 0 0 0 0 0 0 0 0 0 0 0 0 0
0 0 0 0 0 0 0 0 0 0 0 0 0 0 0 0 0 0 0 0 0 0 0 0 0 0 0 0 0 0 0 0 0 0 0 0 0 0 0 0 0 0 0
0 0 0 0 0 0 0 0 0 0 0 0 0 0 0 0 0 0 0 0 0 0 0 0 0 0 0 0 0 0 0 0 0 0 0 0 0 0 0 0 0 0 0
0 0 0 0 0 0 0 0 0 0 0 0 0 0 0 0 0 0 0 0 0 0 0 0 0 0 0 0 0 0 0 0 0 0 0 0 0 0 0 0 0 0 0
0 0 0 0 0 0 0 0 0 0 0 0 0 0 0 0 0 0 0 0 0 0 0 0 0 0 0 0 0 0 0 0 0 0 0 0 0 0 0 0 0 0 0
0 0 0 0 0 0 0 0 0 0 0 0 0 0 0 0 0 0 0 0 0 0 0 0 0 0 0 0 0 0 0 0 0 0 0 0 0 0 0 0 0 0 0
0 0 0 0 0 0 0 0 0 0 0 0 0 0 0 0 0 0 0 0 0 0 0 0 0 0 0 0 0 0 0 0 0 0 0 0 0 0 0 0 0 0 0
0 0 0 0 0 0 0 0 0 0 0 0 0 0 0 0 0 0 0 0 0 0 0 0 0 0 0 0 0 0 0 0 0 0 0 0 0 0 0 0 0 0 0
0 0 0 0 0 0 0 0 0 0 0 0 0 0 0 0 0 0 0 0 0 0 0 0 0 0 0 0 0 0 0 0 0 0 0 0 0 0 0 0 0 0 0
0 0 0 0 0 0 0 0 0 0 0 0 0 0 0 0 0 0 0 0 0 0 0 0 0 0 0 0 0 0 0 0 0 0 0 0 0 0 0 0 0 0 0
0 0 0 0 0 0 0 0 0 0 0 0 0 0 0 0 0 0 0 0 0 0 0 0 0 0 0 0 0 0 0 0 0 0 0 0 0 0 0 0 0 0 0
0 0 0 0 0 0 0 0 0 0 0 0 0 0 0 0 0 0 0 0 0 0 0 0 0 0 0 0 0 0 0 0 0 0 0 0 0 0 0 0 0 0 0
Wind_Speed
4 4 4 5 5 5 5 5 6 6 6 7 7 7 7 7 6 6 6 6 6 6 6 6 6 6 5 4 4 4 4 4 6 4 3 3 3 4 3 3 3 3 3
4 4 5 5 5 5 6 6 6 6 6 7 7 7 7 7 7 7 7 7 7 7 7 7 7 6 6 5 5 5 5 5 5 6 4 3 4 4 3 4 3 3 2
4 4 5 5 5 6 7 7 6 7 7 7 7 7 8 8 8 8 8 8 8 8 7 8 8 7 7 6 6 6 5 5 4 5 5 3 3 3 3 3 3 3 3
4 5 5 6 6 6 7 7 7 7 7 7 8 7 8 8 8 8 9 9 8 8 8 8 8 8 8 8 7 7 6 5 5 5 5 3 3 3 3 3 3 3 3
5 5 6 6 6 6 7 7 7 7 8 8 8 8 8 7 7 9 9 9 9 9 8 8 9 10 12 10 7 6 6 6 5 5 5 4 4 3 4 3 4 3 3
5 6 6 6 6 6 7 7 7 7 7 8 8 8 8 7 13 16 13 9 8 9 9 8 9 10 12 14 13 12 9 8 7 6 6 6 6 5 4 4 3 3 4
6 6 6 6 7 7 7 7 7 7 7 8 8 8 9 10 16 16 16 10 8 8 8 8 8 8 10 8 10 12 11 12 12 9 8 9 7 6 6 6 6 5 5
6 7 6 6 7 7 7 7 7 7 7 8 8 8 9 11 16 17 17 10 8 8 8 9 9 8 8 9 8 8 8 8 10 8 8 8 6 6 7 7 7 5 4
6 7 7 7 7 7 8 8 7 7 7 8 8 8 8 11 15 17 16 8 7 8 8 8 9 8 12 13 9 8 8 7 9 11 11 10 11 11 8 5 5 5 5
7 8 7 7 7 8 8 8 7 7 8 8 8 8 8 9 14 16 15 6 7 6 6 7 11 11 12 13 9 8 8 7 6 6 7 8 8 8 10 7 6 6 4
7 8 7 7 7 7 7 6 6 7 7 7 8 8 7 9 12 15 15 7 6 6 6 5 6 11 13 13 11 7 9 7 5 5 4 4 4 4 4 5 5 6 6
7 7 7 6 6 6 6 6 6 6 6 6 6 7 6 7 10 12 15 13 11 6 6 5 6 11 12 11 8 7 8 6 3 3 4 4 4 4 3 3 4 4 5
6 6 6 7 6 6 5 6 5 5 5 6 6 6 7 6 7 13 14 15 14 7 5 9 10 10 8 5 5 6 5 3 3 3 4 4 3 3 3 2 2 3 3
5 6 6 6 6 5 5 5 5 5 5 6 6 6 6 6 6 6 6 7 9 7 5 6 8 7 5 5 4 3 3 3 3 3 3 3 2 2 3 3 3 3 3
5 5 6 6 5 5 5 4 6 4 6 7 5 5 6 7 9 14 10 7 6 5 5 3 3 3 2 2 2 2 2 2 2 2 3 3 3 3 3 2 3 3 3
5 5 4 5 5 5 5 6 8 9 12 12 12 10 8 11 15 15 14 13 13 10 5 3 3 3 3 3 3 3 2 2 2 2 3 3 3 3 3 2 2 3 4
5 5 4 5 5 5 5 5 7 8 11 12 13 13 13 14 14 14 13 12 11 9 4 3 3 3 3 3 3 3 3 3 3 2 3 3 2 2 2 2 2 3 3
5 6 5 4 4 5 5 5 5 6 7 7 9 13 14 14 14 13 13 9 6 5 3 3 4 4 4 3 3 3 3 3 3 2 2 2 2 2 2 3 3 3 3
5 4 4 4 4 4 4 4 5 5 6 6 7 8 12 12 12 12 11 5 5 5 4 4 4 4 4 4 3 3 3 3 3 3 2 2 2 2 2 3 3 4 3
4 7 7 5 4 4 4 4 4 5 5 5 6 7 7 7 6 7 6 5 5 5 5 4 4 4 4 4 4 3 3 3 3 3 2 2 2 2 2 2 2 3 3
4 5 8 6 4 4 4 4 4 4 5 5 5 7 11 6 5 6 6 5 5 5 5 5 5 5 4 4 4 4 4 3 3 3 2 2 2 2 2 2 2 2 2
3 4 4 4 4 4 5 4 4 4 5 6 5 7 11 6 5 5 5 5 5 5 5 5 4 4 4 4 4 4 4 4 3 3 3 2 2 2 1 1 1 1 1
3 4 4 4 4 6 6 4 4 4 5 5 6 6 6 5 5 5 6 6 5 5 5 4 5 5 5 4 4 3 4 4 3 3 3 2 2 1 1 1 2 1 1
3 3 4 4 4 4 4 5 4 5 5 5 5 5 5 5 5 6 6 6 6 6 5 5 5 6 7 6 4 3 3 4 3 3 3 2 2 1 1 1 1 2 1
2 3 4 4 4 5 5 5 5 5 5 5 5 5 5 5 6 6 6 6 6 6 7 6 5 5 7 7 6 5 5 7 5 2 1 1 1 1 1 1 1 1 1
3 3 3 4 4 4 5 5 5 5 5 5 5 5 5 6 6 6 6 6 6 6 7 6 6 7 8 6 7 7 7 7 5 5 2 0 0 1 0 0 1 1 1
Wind_Direction
320 317 316 313 313 312 310 308 306 307 309 310 308 308 305 303 300 293 289 287 283 284 285 281 278 262 253 248 244 240 239 237 250 265 257 261 254 254 266 262 252 254 255
307 309 309 309 313 313 309 307 308 306 305 307 306 305 302 301 299 294 288 286 279 277 278 275 278 276 258 251 243 241 241 236 239 255 259 251 253 247 245 251 262 259 247
307 306 309 310 311 308 307 307 308 307 305 305 303 300 300 300 297 293 286 279 273 270 268 268 269 270 263 255 247 243 242 244 236 242 254 248 255 246 246 259 263 263 263
305 303 302 301 300 300 302 304 305 305 305 303 300 298 297 296 295 292 289 280 271 267 263 261 261 258 259 255 249 243 237 236 235 235 247 246 245 235 226 239 258 250 258
302 299 297 297 299 301 303 303 304 304 305 303 301 300 299 294 289 289 284 279 274 269 264 260 259 260 260 256 252 242 234 232 233 234 239 242 234 222 226 226 242 249 256
302 293 298 303 304 304 304 305 305 304 303 303 301 299 298 297 299 299 296 285 280 274 268 264 263 264 266 264 263 255 244 237 231 234 240 237 236 227 223 227 232 239 255
305 301 302 303 304 305 306 306 303 302 302 301 298 296 294 295 301 302 300 295 282 277 273 268 266 263 267 261 261 259 253 250 246 238 237 238 235 227 219 227 230 239 245
308 306 304 304 303 304 302 301 300 300 299 297 297 296 295 298 305 306 305 300 284 274 269 263 262 262 259 254 249 249 245 246 246 242 239 242 241 230 225 230 235 240 251
307 309 307 304 301 300 299 298 299 298 298 296 295 294 296 300 306 308 307 295 285 277 272 267 261 256 259 260 253 248 248 249 254 248 247 247 247 245 240 227 222 222 241
304 303 301 300 299 295 291 293 295 296 295 299 300 298 295 297 306 311 312 298 290 284 277 271 267 264 262 260 249 243 243 247 243 247 250 253 251 245 243 232 218 222 231
305 304 302 300 296 294 291 291 295 297 300 299 299 299 295 300 309 314 316 308 292 287 284 281 273 274 272 266 263 250 246 248 237 235 241 246 246 239 238 234 226 221 227
308 306 304 303 301 306 303 297 296 297 300 299 300 304 300 303 312 314 317 315 307 292 286 284 280 283 280 272 270 266 262 255 237 232 236 241 244 242 241 236 231 230 236
310 307 306 308 307 308 303 299 300 299 302 305 307 307 311 311 312 318 318 317 314 304 290 290 294 298 298 287 281 277 269 250 233 234 238 247 247 241 234 228 226 219 230
307 307 309 311 311 309 306 304 303 302 302 306 309 309 312 314 313 313 311 312 313 312 308 306 311 316 319 317 311 299 275 251 243 241 243 246 241 231 232 227 227 221 225
309 309 313 312 309 306 306 305 307 292 298 308 307 307 312 312 317 322 323 319 318 311 318 328 335 332 324 318 313 306 295 285 271 255 244 238 236 235 235 232 229 221 223
313 316 312 310 312 313 315 317 320 324 324 324 325 324 318 320 324 328 330 332 335 335 334 331 325 321 319 315 309 307 301 291 283 274 263 248 237 232 237 238 228 217 220
307 311 312 316 317 316 317 321 323 329 334 333 333 333 333 331 334 336 338 341 344 346 345 331 325 321 318 316 313 309 303 296 288 275 267 259 246 237 235 233 226 218 222
312 310 315 311 310 310 312 315 317 322 327 329 332 334 336 337 339 341 344 347 346 349 339 330 323 320 315 311 310 307 302 300 296 286 270 258 243 229 229 230 225 216 219
318 314 313 311 311 313 314 315 316 319 320 322 327 332 338 337 340 346 351 352 337 332 331 327 323 320 315 311 309 307 303 298 295 289 281 268 251 231 227 231 227 224 223
319 322 327 322 319 320 319 317 320 321 322 324 326 328 333 337 343 344 346 340 335 330 327 323 321 319 316 313 311 309 307 302 299 292 287 279 265 244 230 229 229 223 217
317 320 327 329 324 319 317 315 315 317 318 320 321 324 334 339 336 333 333 333 330 325 322 319 317 317 314 313 310 307 304 300 295 292 289 281 266 259 253 239 239 229 203
319 318 320 319 319 317 317 317 318 317 317 318 320 326 336 341 334 332 330 328 324 319 314 312 310 308 306 304 301 300 299 298 296 293 287 277 257 246 240 231 236 240 199
318 318 317 315 315 318 324 322 318 317 318 319 322 326 332 333 331 329 327 325 323 321 319 313 308 306 307 304 297 290 287 289 290 288 285 280 270 250 233 225 211 201 210
319 316 314 314 315 314 313 314 315 315 317 319 323 325 326 328 328 327 327 325 324 323 322 320 312 307 307 309 305 296 290 292 287 275 274 274 280 271 247 220 206 194 196
320 314 313 312 311 312 312 313 314 315 318 319 320 322 324 325 325 325 326 325 325 324 326 323 319 319 317 311 309 308 307 312 315 314 283 266 266 266 253 209 188 171 165
314 311 309 308 308 309 310 311 312 314 314 314 316 317 318 318 320 321 322 323 325 325 325 325 329 330 326 324 322 322 324 327 331 334 337 307 256 276 268 187 145 147 138